Regional Weather Roundup
Issued by NWS

Home | Current Version | Previous Version | Text Only | Print | Product List | Glossary Off
Versions: 1 2 3 4 5 6 7 8 9 10 11 12 13 14 15 16 17 18 19 20 21 22 23 24 25 26 27

000
ASUS45 KCYS 201310
RWRWY

WYOMING REGIONAL WEATHER ROUNDUP
NATIONAL WEATHER SERVICE CHEYENNE WY
600 AM MST SAT JAN 20 2018

NOTE:  "FAIR" INDICATES FEW OR NO CLOUDS BELOW 12,000 FEET
WITH NO SIGNIFICANT WEATHER AND/OR OBSTRUCTIONS TO VISIBILITY.

WYZ001-201400-
YELLOWSTONE NATIONAL PARK

CITY           SKY/WX    TMP DP  RH WIND       PRES   REMARKS
LK YELLOWSTONE   N/A     16  13  88 CALM      29.84R
W YELLOWSTONE  NOT AVBL

$$
WYZ002>013-054>058-071-098>099-201400-
NORTHERN WYOMING

CITY           SKY/WX    TMP DP  RH WIND       PRES   REMARKS
JACKSON        CLOUDY    22  17  81 S6        29.85S WCI  14
CODY           CLOUDY    28  24  85 SE5       29.86R WCI  23
GREYBULL       CLOUDY    29  24  82 CALM      29.86R
WORLAND        CLOUDY    29  27  92 S9        29.87R WCI  20
SHERIDAN       CLOUDY    27  22  81 CALM      29.87S
BUFFALO        CLOUDY    29  21  72 N5        29.86F WCI  24
GILLETTE       LGT SNOW  30  28  92 NW6       29.86S FOG     WCI  24
HULETT         CLOUDY    32  30  93 MISG      29.87S
NEWCASTLE      CLOUDY    32  27  80 NW10      29.82S WCI  24

$$
WYZ014>020-022>026-101>103-201400-
CENTRAL WYOMING

CITY           SKY/WX    TMP DP  RH WIND       PRES   REMARKS
BIG PINEY      CLOUDY    21  14  74 N5        29.82F WCI  15
PINEDALE       CLOUDY    18  12  79 CALM      29.82S
DUBOIS         CLOUDY    23  10  58 NW12      29.78R WCI  12
LANDER         LGT SNOW  29  27  92 CALM      29.81R FOG
RIVERTON       CLOUDY    28  22  78 E6        29.82S WCI  22
CASPER         LGT SNOW  29  28  96 NE10      29.82F FOG     WCI  20
DOUGLAS        LGT SNOW  32  32 100 NW9       29.84R FOG     WCI  24

$$
WYZ021-027>030-104>119-201400-
SOUTHERN WYOMING

CITY           SKY/WX    TMP DP  RH WIND       PRES   REMARKS
EVANSTON       CLOUDY    21  20  96 NE5       29.82S FOG     WCI  15
ROCK SPRINGS   LGT SNOW  24  22  91 W6        29.82S FOG     WCI  17
DIXON            N/A     30  25  81 E3        29.84F
RAWLINS        FAIR      25  19  78 NE6       29.81R WCI  18
SARATOGA       CLOUDY    28  25  86 CALM      29.82S
LARAMIE        FAIR      24  19  81 NE7       29.79R WCI  16
CHEYENNE       FAIR      32  18  56 NW6       29.76R WCI  26
TORRINGTON     FAIR      31  28  89 N8        29.78R WCI  23

$$




USA.gov is the U.S. government's official web portal to all federal, state and local government web resources and services.